Time,TemperatureF,DewpointF,PressureIn,WindDirection,WindDirectionDegrees,WindSpeedMPH,WindSpeedGustMPH,Humidity,HourlyPrecipIn,Conditions,Clouds,dailyrainin,SolarRadiationWatts/m^2,SoftwareType,DateUTC
2013-04-23 00:00:00,57.1,43.8,29.95,South,180,7.0,17.0,61,0.00,,---,0.05,0.00,VWS V14.01,2013-04-23 05:00:00,
2013-04-23 00:01:00,57.0,43.7,29.95,SSW,200,7.0,12.0,61,0.00,,---,0.00,0.00,VWS V14.01,2013-04-23 05:01:00,
2013-04-23 00:06:00,56.5,44.1,29.95,SSW,209,9.0,12.0,63,0.00,,---,0.00,0.00,VWS V14.01,2013-04-23 05:06:00,
2013-04-23 00:11:00,56.0,44.8,29.95,SSW,206,7.0,12.0,66,0.00,,---,0.00,0.00,VWS V14.01,2013-04-23 05:11:00,
2013-04-23 00:16:00,55.4,44.6,29.94,SSW,202,5.0,12.0,67,0.00,,---,0.00,0.00,VWS V14.01,2013-04-23 05:16:00,
2013-04-23 00:21:00,55.1,44.7,29.94,SSW,209,4.0,12.0,68,0.00,,---,0.00,0.00,VWS V14.01,2013-04-23 05:21:00,
2013-04-23 00:26:00,54.8,44.8,29.94,SSW,211,5.0,12.0,69,0.00,,---,0.00,0.00,VWS V14.01,2013-04-23 05:26:00,
2013-04-23 00:31:00,54.7,45.1,29.94,SSW,209,7.0,12.0,70,0.00,,---,0.00,0.00,VWS V14.01,2013-04-23 05:31:00,
2013-04-23 00:36:00,54.5,45.3,29.94,SSW,204,4.0,12.0,71,0.00,,---,0.00,0.00,VWS V14.01,2013-04-23 05:36:00,
2013-04-23 00:41:00,54.1,45.7,29.94,SSW,204,2.0,12.0,73,0.00,,---,0.00,0.00,VWS V14.01,2013-04-23 05:41:00,
2013-04-23 00:46:00,53.8,45.4,29.94,SSW,204,5.0,12.0,73,0.00,,---,0.00,0.00,VWS V14.01,2013-04-23 05:46:00,
2013-04-23 00:51:00,53.6,45.9,29.94,SW,230,3.0,12.0,75,0.00,,---,0.00,0.00,VWS V14.01,2013-04-23 05:51:00,
2013-04-23 00:56:00,53.3,45.9,29.94,SSW,206,3.0,12.0,76,0.00,,---,0.00,0.00,VWS V14.01,2013-04-23 05:56:00,
2013-04-23 01:00:00,53.1,46.1,29.94,SSW,203,4.0,12.0,77,0.00,,---,0.00,0.00,VWS V14.01,2013-04-23 06:00:00,
2013-04-23 01:01:00,53.1,46.1,29.94,SSW,207,6.0,6.0,77,0.00,,---,0.00,0.00,VWS V14.01,2013-04-23 06:01:00,
2013-04-23 01:06:00,53.0,46.3,29.94,SW,217,3.0,6.0,78,0.00,,---,0.00,0.00,VWS V14.01,2013-04-23 06:06:00,
2013-04-23 01:11:00,52.8,46.5,29.93,SSW,212,3.0,6.0,79,0.00,,---,0.00,0.00,VWS V14.01,2013-04-23 06:11:00,
2013-04-23 01:16:00,52.6,46.6,29.93,SSW,212,4.0,6.0,80,0.01,,---,0.01,0.00,VWS V14.01,2013-04-23 06:16:00,
2013-04-23 01:21:00,52.5,46.8,29.93,SSW,211,1.0,6.0,81,0.01,,---,0.01,0.00,VWS V14.01,2013-04-23 06:21:00,
2013-04-23 01:26:00,52.3,46.7,29.93,SSW,202,1.0,6.0,81,0.01,,---,0.01,0.00,VWS V14.01,2013-04-23 06:26:00,
2013-04-23 01:31:00,52.1,46.8,29.92,SSW,202,4.0,6.0,82,0.01,,---,0.01,0.00,VWS V14.01,2013-04-23 06:31:00,
2013-04-23 01:36:00,52.0,47.0,29.92,SSW,209,3.0,6.0,83,0.01,,---,0.01,0.00,VWS V14.01,2013-04-23 06:36:00,
2013-04-23 01:41:00,51.8,47.4,29.91,SSW,209,3.0,6.0,85,0.01,,---,0.01,0.00,VWS V14.01,2013-04-23 06:41:00,
2013-04-23 01:46:00,51.6,47.6,29.91,SSW,209,2.0,6.0,86,0.01,,---,0.01,0.00,VWS V14.01,2013-04-23 06:46:00,
2013-04-23 01:51:00,51.5,47.5,29.90,SSW,209,0.0,6.0,86,0.01,,---,0.01,0.00,VWS V14.01,2013-04-23 06:51:00,
2013-04-23 01:56:00,51.4,47.4,29.90,SSW,209,1.0,6.0,86,0.01,,---,0.01,0.00,VWS V14.01,2013-04-23 06:56:00,
2013-04-23 02:00:00,51.3,47.3,29.90,SSW,209,0.0,6.0,86,0.01,,---,0.01,0.00,VWS V14.01,2013-04-23 07:00:00,
2013-04-23 02:01:00,51.3,47.3,29.90,SSW,209,0.0,0.0,86,0.01,,---,0.01,0.00,VWS V14.01,2013-04-23 07:01:00,
2013-04-23 02:06:00,51.2,47.5,29.89,SSW,209,1.0,1.0,87,0.01,,---,0.01,0.00,VWS V14.01,2013-04-23 07:06:00,
2013-04-23 02:11:00,51.1,47.4,29.89,SSW,209,2.0,2.0,87,0.01,,---,0.01,0.00,VWS V14.01,2013-04-23 07:11:00,
2013-04-23 02:16:00,50.9,47.2,29.89,SSW,209,0.0,2.0,87,0.01,,---,0.01,0.00,VWS V14.01,2013-04-23 07:16:00,
2013-04-23 02:21:00,50.8,47.4,29.89,SSW,209,0.0,2.0,88,0.01,,---,0.01,0.00,VWS V14.01,2013-04-23 07:21:00,
2013-04-23 02:26:00,50.7,47.3,29.89,SSW,209,0.0,2.0,88,0.01,,---,0.01,0.00,VWS V14.01,2013-04-23 07:26:00,
2013-04-23 02:31:00,50.5,47.1,29.89,SSW,209,1.0,2.0,88,0.01,,---,0.01,0.00,VWS V14.01,2013-04-23 07:31:00,
2013-04-23 02:36:00,50.4,47.3,29.90,SSW,209,2.0,2.0,89,0.01,,---,0.01,0.00,VWS V14.01,2013-04-23 07:36:00,
2013-04-23 02:41:00,50.3,47.2,29.90,SSW,209,2.0,2.0,89,0.01,,---,0.01,0.00,VWS V14.01,2013-04-23 07:41:00,
2013-04-23 02:46:00,50.3,47.5,29.90,SSW,209,3.0,4.0,90,0.01,,---,0.01,0.00,VWS V14.01,2013-04-23 07:46:00,
2013-04-23 02:51:00,50.4,47.3,29.90,SSW,209,4.0,4.0,89,0.01,,---,0.01,0.00,VWS V14.01,2013-04-23 07:51:00,
2013-04-23 02:56:00,50.5,47.4,29.89,SSW,209,2.0,5.0,89,0.01,,---,0.01,0.00,VWS V14.01,2013-04-23 07:56:00,
2013-04-23 03:00:00,50.5,47.4,29.89,SSW,209,2.0,5.0,89,0.01,,---,0.01,0.00,VWS V14.01,2013-04-23 08:00:00,
2013-04-23 03:01:00,50.5,47.4,29.89,SSW,209,2.0,3.0,89,0.00,,---,0.01,0.00,VWS V14.01,2013-04-23 08:01:00,
2013-04-23 03:06:00,50.5,47.4,29.88,SSW,209,1.0,4.0,89,0.00,,---,0.01,0.00,VWS V14.01,2013-04-23 08:06:00,
2013-04-23 03:11:00,50.5,47.4,29.88,SSW,209,2.0,4.0,89,0.00,,---,0.01,0.00,VWS V14.01,2013-04-23 08:11:00,
2013-04-23 03:16:00,50.4,47.3,29.88,SSW,209,3.0,4.0,89,0.00,,---,0.01,0.00,VWS V14.01,2013-04-23 08:16:00,
2013-04-23 03:21:00,50.5,47.4,29.88,SSW,209,3.0,4.0,89,0.00,,---,0.01,0.00,VWS V14.01,2013-04-23 08:21:00,
2013-04-23 03:26:00,50.5,47.4,29.88,SSW,209,4.0,5.0,89,0.00,,---,0.01,0.00,VWS V14.01,2013-04-23 08:26:00,
2013-04-23 03:31:00,50.6,47.5,29.88,SSW,209,1.0,5.0,89,0.00,,---,0.01,0.00,VWS V14.01,2013-04-23 08:31:00,
2013-04-23 03:36:00,50.6,47.5,29.88,SSW,209,2.0,5.0,89,0.00,,---,0.01,0.00,VWS V14.01,2013-04-23 08:36:00,
2013-04-23 03:41:00,50.5,47.4,29.88,SSW,209,4.0,5.0,89,0.00,,---,0.01,0.00,VWS V14.01,2013-04-23 08:41:00,
2013-04-23 03:46:00,50.5,47.4,29.88,SSW,209,4.0,5.0,89,0.00,,---,0.01,0.00,VWS V14.01,2013-04-23 08:46:00,
2013-04-23 03:51:00,50.6,47.5,29.88,SSW,209,5.0,5.0,89,0.00,,---,0.01,0.00,VWS V14.01,2013-04-23 08:51:00,
2013-04-23 03:56:00,50.6,47.5,29.88,SSW,213,3.0,5.0,89,0.00,,---,0.01,0.00,VWS V14.01,2013-04-23 08:56:00,
2013-04-23 04:00:00,50.6,47.5,29.87,SSW,213,3.0,5.0,89,0.00,,---,0.01,0.00,VWS V14.01,2013-04-23 09:00:00,
2013-04-23 04:01:00,50.6,47.5,29.87,SSW,213,4.0,4.0,89,0.00,,---,0.01,0.00,VWS V14.01,2013-04-23 09:01:00,
2013-04-23 04:06:00,50.6,47.5,29.87,SSW,199,5.0,6.0,89,0.00,,---,0.01,0.00,VWS V14.01,2013-04-23 09:06:00,
2013-04-23 04:11:00,50.6,47.5,29.88,SSW,209,6.0,7.0,89,0.00,,---,0.01,0.00,VWS V14.01,2013-04-23 09:11:00,
2013-04-23 04:16:00,50.8,47.7,29.88,SSW,202,4.0,7.0,89,0.00,,---,0.01,0.00,VWS V14.01,2013-04-23 09:16:00,
2013-04-23 04:21:00,50.7,47.6,29.88,SSW,208,4.0,7.0,89,0.00,,---,0.01,0.00,VWS V14.01,2013-04-23 09:21:00,
2013-04-23 04:26:00,50.7,47.6,29.87,SSW,202,2.0,7.0,89,0.00,,---,0.01,0.00,VWS V14.01,2013-04-23 09:26:00,
2013-04-23 04:31:00,50.6,47.5,29.87,SSW,213,3.0,7.0,89,0.00,,---,0.01,0.00,VWS V14.01,2013-04-23 09:31:00,
2013-04-23 04:36:00,50.5,47.4,29.87,SSW,200,5.0,7.0,89,0.00,,---,0.01,0.00,VWS V14.01,2013-04-23 09:36:00,
2013-04-23 04:41:00,50.5,47.4,29.88,WSW,252,12.0,12.0,89,0.00,,---,0.01,0.00,VWS V14.01,2013-04-23 09:41:00,
2013-04-23 04:46:00,50.4,47.0,29.89,NNW,340,9.0,15.0,88,0.00,,---,0.01,0.00,VWS V14.01,2013-04-23 09:46:00,
2013-04-23 04:51:00,48.2,43.0,29.88,WNW,300,5.0,15.0,82,0.01,,---,0.02,0.00,VWS V14.01,2013-04-23 09:51:00,
2013-04-23 04:56:00,46.2,41.3,29.87,WNW,296,5.0,15.0,83,0.01,,---,0.02,0.00,VWS V14.01,2013-04-23 09:56:00,
2013-04-23 05:00:00,45.2,40.7,29.86,NW,325,8.0,15.0,84,0.01,,---,0.02,0.00,VWS V14.01,2013-04-23 10:00:00,
2013-04-23 05:01:00,44.7,40.2,29.86,NNW,327,6.0,8.0,84,0.01,,---,0.02,0.00,VWS V14.01,2013-04-23 10:01:00,
2013-04-23 05:06:00,43.4,39.2,29.88,WSW,252,3.0,11.0,85,0.01,,---,0.02,0.00,VWS V14.01,2013-04-23 10:06:00,
2013-04-23 05:11:00,42.7,39.1,29.89,West,261,5.0,12.0,87,0.01,,---,0.02,0.00,VWS V14.01,2013-04-23 10:11:00,
2013-04-23 05:16:00,42.3,39.0,29.89,West,263,2.0,12.0,88,0.01,,---,0.02,0.00,VWS V14.01,2013-04-23 10:16:00,
2013-04-23 05:20:00,42.0,38.7,29.89,West,269,4.0,12.0,88,0.01,,---,0.02,0.00,VWS V14.01,2013-04-23 10:20:00,
2013-04-23 05:25:00,41.7,38.7,29.89,SW,236,2.0,12.0,89,0.01,,---,0.02,0.00,VWS V14.01,2013-04-23 10:25:00,
2013-04-23 05:30:00,41.5,38.5,29.90,West,263,1.0,12.0,89,0.01,,---,0.02,0.00,VWS V14.01,2013-04-23 10:30:00,
2013-04-23 05:35:00,41.4,38.4,29.91,NW,317,0.0,12.0,89,0.01,,---,0.02,0.00,VWS V14.01,2013-04-23 10:35:00,
2013-04-23 05:40:00,41.3,38.6,29.91,WNW,296,1.0,12.0,90,0.01,,---,0.02,0.00,VWS V14.01,2013-04-23 10:40:00,
2013-04-23 05:45:00,41.2,38.5,29.92,NW,305,4.0,12.0,90,0.01,,---,0.02,0.00,VWS V14.01,2013-04-23 10:45:00,
2013-04-23 05:50:00,40.8,38.1,29.92,West,279,2.0,12.0,90,0.01,,---,0.02,0.00,VWS V14.01,2013-04-23 10:50:00,
2013-04-23 05:55:00,40.2,37.2,29.92,WNW,286,2.0,12.0,89,0.01,,---,0.02,0.00,VWS V14.01,2013-04-23 10:55:00,
2013-04-23 06:00:00,39.5,36.2,29.93,WNW,288,4.0,8.0,88,0.00,,---,0.02,0.00,VWS V14.01,2013-04-23 11:00:00,
2013-04-23 06:05:00,39.0,35.8,29.94,North,351,10.0,10.0,88,0.00,,---,0.02,0.00,VWS V14.01,2013-04-23 11:05:00,
2013-04-23 06:10:00,38.5,35.3,29.94,NW,311,4.0,12.0,88,0.00,,---,0.02,0.00,VWS V14.01,2013-04-23 11:10:00,
2013-04-23 06:15:00,38.1,34.9,29.94,WSW,248,2.0,12.0,88,0.00,,---,0.02,0.00,VWS V14.01,2013-04-23 11:15:00,
2013-04-23 06:20:00,37.9,34.7,29.94,WSW,250,3.0,12.0,88,0.00,,---,0.02,0.00,VWS V14.01,2013-04-23 11:20:00,
2013-04-23 06:25:00,37.7,34.5,29.94,NW,308,7.0,12.0,88,0.00,,---,0.02,0.00,VWS V14.01,2013-04-23 11:25:00,
2013-04-23 06:30:00,37.5,34.3,29.94,NW,308,5.0,12.0,88,0.00,,---,0.02,7.00,VWS V14.01,2013-04-23 11:30:00,
2013-04-23 06:35:00,37.3,34.1,29.94,NNW,329,2.0,12.0,88,0.00,,---,0.02,9.00,VWS V14.01,2013-04-23 11:35:00,
2013-04-23 06:40:00,37.1,33.9,29.94,WNW,286,5.0,12.0,88,0.00,,---,0.02,12.00,VWS V14.01,2013-04-23 11:40:00,
2013-04-23 06:45:00,37.0,34.1,29.94,WSW,258,3.0,12.0,89,0.00,,---,0.02,16.00,VWS V14.01,2013-04-23 11:45:00,
2013-04-23 06:50:00,36.9,34.0,29.94,WSW,252,5.0,12.0,89,0.00,,---,0.02,18.00,VWS V14.01,2013-04-23 11:50:00,
2013-04-23 06:55:00,36.8,33.9,29.93,WSW,251,0.0,12.0,89,0.00,,---,0.02,16.00,VWS V14.01,2013-04-23 11:55:00,
2013-04-23 07:00:00,36.7,33.8,29.94,West,268,7.0,7.0,89,0.00,,---,0.02,21.00,VWS V14.01,2013-04-23 12:00:00,
2013-04-23 07:05:00,36.5,33.6,29.94,NW,309,8.0,11.0,89,0.00,,---,0.02,39.00,VWS V14.01,2013-04-23 12:05:00,
2013-04-23 07:10:00,36.3,33.4,29.94,WSW,239,6.0,11.0,89,0.00,,---,0.02,30.00,VWS V14.01,2013-04-23 12:10:00,
2013-04-23 07:15:00,36.2,33.3,29.95,NE,39,2.0,11.0,89,0.00,,---,0.02,21.00,VWS V14.01,2013-04-23 12:15:00,
2013-04-23 07:20:00,36.1,33.2,29.95,NNW,336,2.0,11.0,89,0.00,,---,0.02,26.00,VWS V14.01,2013-04-23 12:20:00,
2013-04-23 07:25:00,35.9,33.0,29.95,NW,316,5.0,11.0,89,0.00,,---,0.02,21.00,VWS V14.01,2013-04-23 12:25:00,
2013-04-23 07:30:00,35.9,33.0,29.95,WSW,248,4.0,11.0,89,0.00,,---,0.02,26.00,VWS V14.01,2013-04-23 12:30:00,
2013-04-23 07:35:00,35.8,32.9,29.96,North,355,2.0,11.0,89,0.00,,---,0.02,30.00,VWS V14.01,2013-04-23 12:35:00,
2013-04-23 07:40:00,35.9,33.3,29.96,West,281,2.0,11.0,90,0.00,,---,0.02,37.00,VWS V14.01,2013-04-23 12:40:00,
2013-04-23 07:45:00,35.9,33.3,29.96,NNW,344,5.0,11.0,90,0.00,,---,0.02,32.00,VWS V14.01,2013-04-23 12:45:00,
2013-04-23 07:50:00,35.9,33.3,29.97,WNW,290,4.0,11.0,90,0.00,,---,0.02,33.00,VWS V14.01,2013-04-23 12:50:00,
2013-04-23 07:55:00,35.9,33.3,29.97,WSW,241,2.0,11.0,90,0.00,,---,0.02,42.00,VWS V14.01,2013-04-23 12:55:00,
2013-04-23 08:00:00,35.9,33.3,29.97,WNW,302,2.0,4.0,90,0.00,,---,0.02,32.00,VWS V14.01,2013-04-23 13:00:00,
2013-04-23 08:05:00,35.9,33.0,29.97,West,261,2.0,6.0,89,0.00,,---,0.02,33.00,VWS V14.01,2013-04-23 13:05:00,
2013-04-23 08:10:00,35.8,32.9,29.97,West,263,3.0,6.0,89,0.00,,---,0.02,62.00,VWS V14.01,2013-04-23 13:10:00,
2013-04-23 08:15:00,35.9,33.0,29.97,North,5,5.0,7.0,89,0.00,,---,0.02,84.00,VWS V14.01,2013-04-23 13:15:00,
2013-04-23 08:20:00,35.9,33.0,29.97,NW,315,3.0,7.0,89,0.00,,---,0.02,54.00,VWS V14.01,2013-04-23 13:20:00,
2013-04-23 08:25:00,35.9,33.0,29.97,WNW,289,2.0,11.0,89,0.00,,---,0.02,69.00,VWS V14.01,2013-04-23 13:25:00,
2013-04-23 08:30:00,36.0,32.8,29.97,WNW,298,2.0,11.0,88,0.00,,---,0.02,91.00,VWS V14.01,2013-04-23 13:30:00,
2013-04-23 08:35:00,36.2,33.0,29.97,West,268,3.0,11.0,88,0.00,,---,0.02,77.00,VWS V14.01,2013-04-23 13:35:00,
2013-04-23 08:40:00,36.3,33.1,29.97,West,260,3.0,11.0,88,0.00,,---,0.02,90.00,VWS V14.01,2013-04-23 13:40:00,
2013-04-23 08:45:00,36.4,33.2,29.97,NNW,345,3.0,11.0,88,0.00,,---,0.02,107.00,VWS V14.01,2013-04-23 13:45:00,
2013-04-23 08:50:00,36.5,33.0,29.96,West,262,1.0,11.0,87,0.00,,---,0.02,83.00,VWS V14.01,2013-04-23 13:50:00,
2013-04-23 08:55:00,36.5,33.0,29.96,NW,319,4.0,11.0,87,0.00,,---,0.02,81.00,VWS V14.01,2013-04-23 13:55:00,
2013-04-23 09:00:00,36.5,33.0,29.96,WNW,294,4.0,7.0,87,0.00,,---,0.02,125.00,VWS V14.01,2013-04-23 14:00:00,
2013-04-23 09:05:00,36.6,33.1,29.95,WNW,302,4.0,11.0,87,0.00,,---,0.02,141.00,VWS V14.01,2013-04-23 14:05:00,
2013-04-23 09:10:00,36.8,33.3,29.96,WNW,296,2.0,11.0,87,0.00,,---,0.02,149.00,VWS V14.01,2013-04-23 14:10:00,
2013-04-23 09:15:00,36.9,33.1,29.96,NNW,336,2.0,11.0,86,0.00,,---,0.02,142.00,VWS V14.01,2013-04-23 14:15:00,
2013-04-23 09:20:00,37.0,33.2,29.96,NNE,12,8.0,11.0,86,0.00,,---,0.02,141.00,VWS V14.01,2013-04-23 14:20:00,
2013-04-23 09:25:00,37.0,32.9,29.97,NW,325,5.0,11.0,85,0.00,,---,0.02,144.00,VWS V14.01,2013-04-23 14:25:00,
2013-04-23 09:30:00,36.9,32.8,29.98,North,360,6.0,12.0,85,0.00,,---,0.02,139.00,VWS V14.01,2013-04-23 14:30:00,
2013-04-23 09:35:00,36.9,32.8,29.97,SW,222,2.0,12.0,85,0.00,,---,0.02,192.00,VWS V14.01,2013-04-23 14:35:00,
2013-04-23 09:40:00,36.9,32.8,29.97,North,10,4.0,12.0,85,0.00,,---,0.02,135.00,VWS V14.01,2013-04-23 14:40:00,
2013-04-23 09:45:00,36.9,32.5,29.97,WNW,293,3.0,12.0,84,0.00,,---,0.02,102.00,VWS V14.01,2013-04-23 14:45:00,
2013-04-23 09:50:00,37.0,32.6,29.97,North,5,4.0,12.0,84,0.00,,---,0.02,116.00,VWS V14.01,2013-04-23 14:50:00,
2013-04-23 09:55:00,37.0,32.6,29.98,NNE,31,4.0,12.0,84,0.00,,---,0.02,181.00,VWS V14.01,2013-04-23 14:55:00,
2013-04-23 10:00:00,37.1,32.7,29.98,NW,312,4.0,8.0,84,0.00,,---,0.02,206.00,VWS V14.01,2013-04-23 15:00:00,
2013-04-23 10:05:00,37.3,32.6,29.97,WNW,292,5.0,11.0,83,0.00,,---,0.02,278.00,VWS V14.01,2013-04-23 15:05:00,
2013-04-23 10:10:00,37.5,32.8,29.97,NNE,15,1.0,11.0,83,0.00,,---,0.02,281.00,VWS V14.01,2013-04-23 15:10:00,
2013-04-23 10:15:00,37.8,32.8,29.98,NW,325,7.0,11.0,82,0.00,,---,0.02,225.00,VWS V14.01,2013-04-23 15:15:00,
2013-04-23 10:20:00,37.8,32.8,29.98,WNW,293,5.0,11.0,82,0.00,,---,0.02,244.00,VWS V14.01,2013-04-23 15:20:00,
2013-04-23 10:25:00,38.0,33.0,29.98,NNW,333,4.0,12.0,82,0.00,,---,0.02,288.00,VWS V14.01,2013-04-23 15:25:00,
2013-04-23 10:30:00,38.3,33.3,29.98,WNW,282,4.0,12.0,82,0.00,,---,0.02,279.00,VWS V14.01,2013-04-23 15:30:00,
2013-04-23 10:35:00,38.6,33.3,29.98,North,355,3.0,12.0,81,0.00,,---,0.02,287.00,VWS V14.01,2013-04-23 15:35:00,
2013-04-23 10:40:00,38.7,33.1,29.98,NNW,336,7.0,12.0,80,0.00,,---,0.02,396.00,VWS V14.01,2013-04-23 15:40:00,
2013-04-23 10:45:00,38.8,33.2,29.98,NW,313,8.0,12.0,80,0.00,,---,0.02,341.00,VWS V14.01,2013-04-23 15:45:00,
2013-04-23 10:50:00,39.1,32.8,29.98,North,355,4.0,12.0,78,0.00,,---,0.02,278.00,VWS V14.01,2013-04-23 15:50:00,
2013-04-23 10:55:00,39.2,32.9,29.98,NNE,29,3.0,12.0,78,0.00,,---,0.02,239.00,VWS V14.01,2013-04-23 15:55:00,
2013-04-23 11:00:00,39.1,32.5,29.98,NW,323,3.0,6.0,77,0.00,,---,0.02,199.00,VWS V14.01,2013-04-23 16:00:00,
2013-04-23 11:05:00,39.0,32.4,29.98,NE,34,3.0,11.0,77,0.00,,---,0.02,214.00,VWS V14.01,2013-04-23 16:05:00,
2013-04-23 11:10:00,39.1,32.2,29.98,North,355,8.0,13.0,76,0.00,,---,0.02,241.00,VWS V14.01,2013-04-23 16:10:00,
2013-04-23 11:15:00,39.1,32.5,29.98,North,5,2.0,13.0,77,0.00,,---,0.02,206.00,VWS V14.01,2013-04-23 16:15:00,
2013-04-23 11:20:00,38.9,32.0,29.98,North,351,3.0,13.0,76,0.00,,---,0.02,162.00,VWS V14.01,2013-04-23 16:20:00,
2013-04-23 11:25:00,38.8,32.2,29.99,NNE,19,5.0,13.0,77,0.00,,---,0.02,178.00,VWS V14.01,2013-04-23 16:25:00,
2013-04-23 11:30:00,38.8,32.2,29.99,West,279,2.0,16.0,77,0.00,,---,0.02,267.00,VWS V14.01,2013-04-23 16:30:00,
2013-04-23 11:35:00,39.0,32.4,29.99,NNE,16,5.0,16.0,77,0.00,,---,0.02,239.00,VWS V14.01,2013-04-23 16:35:00,
2013-04-23 11:40:00,39.3,32.7,30.00,WSW,250,5.0,16.0,77,0.00,,---,0.02,139.00,VWS V14.01,2013-04-23 16:40:00,
2013-04-23 11:45:00,39.3,32.7,29.99,WSW,248,5.0,16.0,77,0.00,,---,0.02,130.00,VWS V14.01,2013-04-23 16:45:00,
2013-04-23 11:50:00,39.3,32.7,29.99,WNW,291,5.0,16.0,77,0.00,,---,0.02,271.00,VWS V14.01,2013-04-23 16:50:00,
2013-04-23 11:55:00,39.2,32.6,29.99,NNW,327,6.0,16.0,77,0.00,,---,0.02,290.00,VWS V14.01,2013-04-23 16:55:00,
2013-04-23 12:00:00,39.3,32.7,29.97,NNW,346,6.0,7.0,77,0.00,,---,0.02,418.00,VWS V14.01,2013-04-23 17:00:00,
2013-04-23 12:05:00,39.7,32.8,29.98,NW,305,4.0,17.0,76,0.00,,---,0.02,376.00,VWS V14.01,2013-04-23 17:05:00,
2013-04-23 12:10:00,40.3,33.7,29.98,North,5,2.0,17.0,77,0.00,,---,0.02,302.00,VWS V14.01,2013-04-23 17:10:00,
2013-04-23 12:15:00,40.5,33.5,29.98,West,279,3.0,17.0,76,0.00,,---,0.02,216.00,VWS V14.01,2013-04-23 17:15:00,
2013-04-23 12:20:00,40.4,33.1,29.98,North,351,5.0,17.0,75,0.00,,---,0.02,257.00,VWS V14.01,2013-04-23 17:20:00,
2013-04-23 12:25:00,40.4,33.5,29.98,NNW,333,4.0,17.0,76,0.00,,---,0.02,151.00,VWS V14.01,2013-04-23 17:25:00,
2013-04-23 12:30:00,40.2,32.9,29.98,North,5,9.0,17.0,75,0.00,,---,0.02,225.00,VWS V14.01,2013-04-23 17:30:00,
2013-04-23 12:35:00,39.6,32.0,29.98,NNW,345,4.0,17.0,74,0.00,,---,0.02,257.00,VWS V14.01,2013-04-23 17:35:00,
2013-04-23 12:40:00,39.7,32.4,29.98,WNW,289,2.0,17.0,75,0.00,,---,0.02,345.00,VWS V14.01,2013-04-23 17:40:00,
2013-04-23 12:45:00,40.2,32.9,29.98,NW,308,6.0,17.0,75,0.00,,---,0.02,475.00,VWS V14.01,2013-04-23 17:45:00,
2013-04-23 12:50:00,40.3,32.3,29.97,NNE,12,3.0,17.0,73,0.00,,---,0.02,355.00,VWS V14.01,2013-04-23 17:50:00,
2013-04-23 12:55:00,40.7,32.7,29.97,NNW,332,4.0,17.0,73,0.00,,---,0.02,394.00,VWS V14.01,2013-04-23 17:55:00,
2013-04-23 13:00:00,41.0,32.7,29.97,North,9,6.0,6.0,72,0.00,,---,0.02,352.00,VWS V14.01,2013-04-23 18:00:00,
2013-04-23 13:05:00,40.9,32.2,29.97,NNW,346,6.0,11.0,71,0.00,,---,0.02,362.00,VWS V14.01,2013-04-23 18:05:00,
2013-04-23 13:10:00,41.0,32.3,29.97,North,360,7.0,12.0,71,0.00,,---,0.02,364.00,VWS V14.01,2013-04-23 18:10:00,
2013-04-23 13:15:00,41.5,32.5,29.96,NNW,343,5.0,12.0,70,0.00,,---,0.02,378.00,VWS V14.01,2013-04-23 18:15:00,
2013-04-23 13:20:00,41.4,31.6,29.96,NNE,27,3.0,15.0,68,0.00,,---,0.02,350.00,VWS V14.01,2013-04-23 18:20:00,
2013-04-23 13:25:00,41.4,32.0,29.96,NW,306,10.0,15.0,69,0.00,,---,0.02,496.00,VWS V14.01,2013-04-23 18:25:00,
2013-04-23 13:30:00,41.6,32.2,29.96,NNE,18,4.0,15.0,69,0.00,,---,0.02,513.00,VWS V14.01,2013-04-23 18:30:00,
2013-04-23 13:35:00,42.5,32.7,29.96,North,5,9.0,15.0,68,0.00,,---,0.02,466.00,VWS V14.01,2013-04-23 18:35:00,
2013-04-23 13:40:00,42.4,32.2,29.96,NNE,26,8.0,15.0,67,0.00,,---,0.02,390.00,VWS V14.01,2013-04-23 18:40:00,
2013-04-23 13:45:00,42.3,32.1,29.95,NNW,345,6.0,15.0,67,0.00,,---,0.02,318.00,VWS V14.01,2013-04-23 18:45:00,
2013-04-23 13:50:00,42.2,32.0,29.96,North,355,7.0,15.0,67,0.00,,---,0.02,199.00,VWS V14.01,2013-04-23 18:50:00,
2013-04-23 13:55:00,42.0,31.9,29.96,NNE,13,9.0,15.0,67,0.00,,---,0.02,199.00,VWS V14.01,2013-04-23 18:55:00,
2013-04-23 14:00:00,41.7,31.9,29.96,NNE,13,5.0,9.0,68,0.00,,---,0.02,185.00,VWS V14.01,2013-04-23 19:00:00,
2013-04-23 14:05:00,41.5,32.1,29.97,NW,321,0.0,11.0,69,0.00,,---,0.02,223.00,VWS V14.01,2013-04-23 19:05:00,
2013-04-23 14:10:00,41.8,32.0,29.97,NNE,26,8.0,11.0,68,0.00,,---,0.02,339.00,VWS V14.01,2013-04-23 19:10:00,
2013-04-23 14:15:00,42.2,32.4,29.97,NNE,18,3.0,11.0,68,0.00,,---,0.02,457.00,VWS V14.01,2013-04-23 19:15:00,
2013-04-23 14:20:00,42.5,32.3,29.97,NNE,24,8.0,11.0,67,0.00,,---,0.02,381.00,VWS V14.01,2013-04-23 19:20:00,
2013-04-23 14:25:00,42.5,32.0,29.97,North,10,5.0,12.0,66,0.00,,---,0.02,330.00,VWS V14.01,2013-04-23 19:25:00,
2013-04-23 14:30:00,42.8,32.2,29.97,NNW,338,7.0,13.0,66,0.00,,---,0.02,253.00,VWS V14.01,2013-04-23 19:30:00,
2013-04-23 14:35:00,42.4,31.9,29.97,North,355,5.0,13.0,66,0.00,,---,0.02,243.00,VWS V14.01,2013-04-23 19:35:00,
2013-04-23 14:40:00,42.2,31.7,29.96,NNW,331,3.0,14.0,66,0.00,,---,0.02,188.00,VWS V14.01,2013-04-23 19:40:00,
2013-04-23 14:45:00,42.0,31.9,29.96,NNW,346,5.0,14.0,67,0.00,,---,0.02,207.00,VWS V14.01,2013-04-23 19:45:00,
2013-04-23 14:50:00,41.9,31.8,29.96,North,355,9.0,14.0,67,0.00,,---,0.02,199.00,VWS V14.01,2013-04-23 19:50:00,
2013-04-23 14:55:00,41.8,31.7,29.96,NW,316,3.0,14.0,67,0.00,,---,0.02,146.00,VWS V14.01,2013-04-23 19:55:00,
2013-04-23 15:00:00,41.9,31.8,29.97,North,9,9.0,11.0,67,0.00,,---,0.02,121.00,VWS V14.01,2013-04-23 20:00:00,
2013-04-23 15:05:00,41.7,31.6,29.96,North,5,4.0,11.0,67,0.00,,---,0.02,137.00,VWS V14.01,2013-04-23 20:05:00,
2013-04-23 15:10:00,41.7,31.9,29.96,NNW,335,9.0,11.0,68,0.00,,---,0.02,169.00,VWS V14.01,2013-04-23 20:10:00,
2013-04-23 15:15:00,41.6,31.8,29.97,NNE,32,5.0,11.0,68,0.00,,---,0.02,236.00,VWS V14.01,2013-04-23 20:15:00,
2013-04-23 15:20:00,41.5,31.0,29.96,North,355,5.0,11.0,66,0.00,,---,0.02,251.00,VWS V14.01,2013-04-23 20:20:00,
2013-04-23 15:25:00,41.6,31.1,29.96,North,360,4.0,11.0,66,0.00,,---,0.02,206.00,VWS V14.01,2013-04-23 20:25:00,
2013-04-23 15:30:00,41.7,31.6,29.97,North,360,2.0,11.0,67,0.00,,---,0.02,179.00,VWS V14.01,2013-04-23 20:30:00,
2013-04-23 15:35:00,41.7,31.6,29.97,NW,313,2.0,11.0,67,0.00,,---,0.02,163.00,VWS V14.01,2013-04-23 20:35:00,
2013-04-23 15:40:00,41.5,30.6,29.97,NW,309,5.0,12.0,65,0.00,,---,0.02,239.00,VWS V14.01,2013-04-23 20:40:00,
2013-04-23 15:45:00,41.5,31.0,29.98,West,270,5.0,12.0,66,0.00,,---,0.02,269.00,VWS V14.01,2013-04-23 20:45:00,
2013-04-23 15:50:00,42.0,31.5,29.97,NNE,23,7.0,12.0,66,0.00,,---,0.02,362.00,VWS V14.01,2013-04-23 20:50:00,
2013-04-23 15:55:00,42.2,31.3,29.97,NNE,13,5.0,12.0,65,0.00,,---,0.02,343.00,VWS V14.01,2013-04-23 20:55:00,
2013-04-23 16:00:00,42.2,31.3,29.97,North,5,6.0,9.0,65,0.00,,---,0.02,271.00,VWS V14.01,2013-04-23 21:00:00,
2013-04-23 16:05:00,42.0,30.7,29.97,North,360,5.0,11.0,64,0.00,,---,0.02,211.00,VWS V14.01,2013-04-23 21:05:00,
2013-04-23 16:10:00,42.0,31.5,29.97,North,355,4.0,11.0,66,0.00,,---,0.02,225.00,VWS V14.01,2013-04-23 21:10:00,
2013-04-23 16:15:00,42.3,31.8,29.97,NNW,329,3.0,11.0,66,0.00,,---,0.02,253.00,VWS V14.01,2013-04-23 21:15:00,
2013-04-23 16:20:00,42.5,31.6,29.97,NNW,342,6.0,11.0,65,0.00,,---,0.02,348.00,VWS V14.01,2013-04-23 21:20:00,
2013-04-23 16:25:00,42.7,31.8,29.97,North,355,5.0,11.0,65,0.00,,---,0.02,253.00,VWS V14.01,2013-04-23 21:25:00,
2013-04-23 16:30:00,42.8,31.5,29.97,North,360,3.0,11.0,64,0.00,,---,0.02,269.00,VWS V14.01,2013-04-23 21:30:00,
2013-04-23 16:35:00,42.7,31.4,29.97,NW,324,10.0,11.0,64,0.00,,---,0.02,221.00,VWS V14.01,2013-04-23 21:35:00,
2013-04-23 16:40:00,42.4,31.5,29.97,North,360,1.0,13.0,65,0.00,,---,0.02,171.00,VWS V14.01,2013-04-23 21:40:00,
2013-04-23 16:45:00,42.5,32.0,29.97,NNE,15,6.0,13.0,66,0.00,,---,0.02,220.00,VWS V14.01,2013-04-23 21:45:00,
2013-04-23 16:50:00,42.5,31.6,29.97,North,9,1.0,13.0,65,0.00,,---,0.02,163.00,VWS V14.01,2013-04-23 21:50:00,
2013-04-23 16:55:00,42.5,31.6,29.97,NNW,340,4.0,13.0,65,0.00,,---,0.02,151.00,VWS V14.01,2013-04-23 21:55:00,
2013-04-23 17:00:00,42.4,31.5,29.97,NE,34,4.0,6.0,65,0.00,,---,0.02,253.00,VWS V14.01,2013-04-23 22:00:00,
2013-04-23 17:05:00,42.5,31.6,29.97,North,349,6.0,9.0,65,0.00,,---,0.02,199.00,VWS V14.01,2013-04-23 22:05:00,
2013-04-23 17:10:00,42.4,31.1,29.97,North,5,3.0,9.0,64,0.00,,---,0.02,183.00,VWS V14.01,2013-04-23 22:10:00,
2013-04-23 17:15:00,42.5,31.2,29.96,North,350,6.0,9.0,64,0.00,,---,0.02,162.00,VWS V14.01,2013-04-23 22:15:00,
2013-04-23 17:20:00,42.3,31.0,29.96,North,355,3.0,11.0,64,0.00,,---,0.02,160.00,VWS V14.01,2013-04-23 22:20:00,
2013-04-23 17:25:00,42.2,31.7,29.96,NNE,27,3.0,11.0,66,0.00,,---,0.02,151.00,VWS V14.01,2013-04-23 22:25:00,
2013-04-23 17:30:00,42.1,31.2,29.96,NW,325,5.0,11.0,65,0.00,,---,0.02,134.00,VWS V14.01,2013-04-23 22:30:00,
2013-04-23 17:35:00,42.0,31.1,29.96,NNW,347,4.0,11.0,65,0.00,,---,0.02,120.00,VWS V14.01,2013-04-23 22:35:00,
2013-04-23 17:40:00,42.0,31.1,29.96,NNW,331,4.0,11.0,65,0.00,,---,0.02,128.00,VWS V14.01,2013-04-23 22:40:00,
2013-04-23 17:45:00,41.8,30.9,29.96,NNE,17,7.0,11.0,65,0.00,,---,0.02,113.00,VWS V14.01,2013-04-23 22:45:00,
2013-04-23 17:50:00,41.6,30.7,29.96,North,360,2.0,11.0,65,0.00,,---,0.02,111.00,VWS V14.01,2013-04-23 22:50:00,
2013-04-23 17:55:00,41.6,31.1,29.96,North,360,1.0,11.0,66,0.00,,---,0.02,107.00,VWS V14.01,2013-04-23 22:55:00,
2013-04-23 18:00:00,41.6,31.1,29.97,NW,323,3.0,5.0,66,0.00,,---,0.02,135.00,VWS V14.01,2013-04-23 23:00:00,
2013-04-23 18:05:00,41.7,30.8,29.97,NNW,347,4.0,6.0,65,0.00,,---,0.02,111.00,VWS V14.01,2013-04-23 23:05:00,
2013-04-23 18:10:00,41.7,30.8,29.96,NNE,18,5.0,12.0,65,0.00,,---,0.02,111.00,VWS V14.01,2013-04-23 23:10:00,
2013-04-23 18:15:00,41.6,30.7,29.97,NNW,343,7.0,12.0,65,0.00,,---,0.02,100.00,VWS V14.01,2013-04-23 23:15:00,
2013-04-23 18:20:00,41.4,30.5,29.97,NNE,22,8.0,12.0,65,0.00,,---,0.02,77.00,VWS V14.01,2013-04-23 23:20:00,
2013-04-23 18:25:00,41.2,30.3,29.97,North,360,8.0,12.0,65,0.00,,---,0.02,56.00,VWS V14.01,2013-04-23 23:25:00,
2013-04-23 18:30:00,41.0,30.1,29.97,NNW,340,7.0,13.0,65,0.00,,---,0.02,49.00,VWS V14.01,2013-04-23 23:30:00,
2013-04-23 18:35:00,40.7,29.9,29.97,NW,321,10.0,13.0,65,0.00,,---,0.02,53.00,VWS V14.01,2013-04-23 23:35:00,
2013-04-23 18:40:00,40.6,30.1,29.97,NNW,336,1.0,13.0,66,0.00,,---,0.02,47.00,VWS V14.01,2013-04-23 23:40:00,
2013-04-23 18:45:00,40.6,30.1,29.97,NNW,344,7.0,13.0,66,0.00,,---,0.02,44.00,VWS V14.01,2013-04-23 23:45:00,
2013-04-23 18:50:00,40.6,30.5,29.97,NNE,18,5.0,13.0,67,0.00,,---,0.02,65.00,VWS V14.01,2013-04-23 23:50:00,
2013-04-23 18:55:00,40.5,30.0,29.97,NNW,337,5.0,13.0,66,0.00,,---,0.02,69.00,VWS V14.01,2013-04-23 23:55:00,
2013-04-23 19:00:00,40.5,30.0,29.97,NE,38,4.0,6.0,66,0.00,,---,0.02,65.00,VWS V14.01,2013-04-24 00:00:00,
2013-04-23 19:05:00,40.5,30.0,29.97,NNW,346,7.0,9.0,66,0.00,,---,0.02,39.00,VWS V14.01,2013-04-24 00:05:00,
2013-04-23 19:10:00,40.4,30.0,29.97,North,349,3.0,9.0,66,0.00,,---,0.02,26.00,VWS V14.01,2013-04-24 00:10:00,
2013-04-23 19:15:00,40.4,30.0,29.97,North,350,2.0,9.0,66,0.00,,---,0.02,30.00,VWS V14.01,2013-04-24 00:15:00,
2013-04-23 19:20:00,40.4,30.0,29.98,NNE,19,6.0,9.0,66,0.00,,---,0.02,23.00,VWS V14.01,2013-04-24 00:20:00,
2013-04-23 19:25:00,40.3,29.9,29.98,NNW,348,6.0,9.0,66,0.00,,---,0.02,18.00,VWS V14.01,2013-04-24 00:25:00,
2013-04-23 19:30:00,40.1,29.7,29.98,NE,34,5.0,9.0,66,0.00,,---,0.02,12.00,VWS V14.01,2013-04-24 00:30:00,
2013-04-23 19:35:00,40.0,29.6,29.98,NNE,14,1.0,9.0,66,0.00,,---,0.02,9.00,VWS V14.01,2013-04-24 00:35:00,
2013-04-23 19:40:00,39.9,29.5,29.98,NNE,24,4.0,9.0,66,0.00,,---,0.02,7.00,VWS V14.01,2013-04-24 00:40:00,
2013-04-23 19:45:00,39.8,29.8,29.98,North,11,3.0,9.0,67,0.00,,---,0.02,5.00,VWS V14.01,2013-04-24 00:45:00,
2013-04-23 19:50:00,39.8,29.8,29.99,North,355,0.0,9.0,67,0.00,,---,0.02,0.00,VWS V14.01,2013-04-24 00:50:00,
2013-04-23 19:55:00,39.7,29.7,29.99,North,11,4.0,9.0,67,0.00,,---,0.02,0.00,VWS V14.01,2013-04-24 00:55:00,
2013-04-23 20:00:00,39.6,29.6,29.99,NNW,347,6.0,7.0,67,0.00,,---,0.02,0.00,VWS V14.01,2013-04-24 01:00:00,
2013-04-23 20:05:00,39.5,29.1,29.99,North,5,6.0,7.0,66,0.00,,---,0.02,0.00,VWS V14.01,2013-04-24 01:05:00,
2013-04-23 20:10:00,39.4,29.0,29.99,North,5,3.0,8.0,66,0.00,,---,0.02,0.00,VWS V14.01,2013-04-24 01:10:00,
2013-04-23 20:15:00,39.4,29.0,29.99,NNE,30,2.0,8.0,66,0.00,,---,0.02,0.00,VWS V14.01,2013-04-24 01:15:00,
2013-04-23 20:20:00,39.4,29.0,29.99,NNE,12,2.0,8.0,66,0.00,,---,0.02,0.00,VWS V14.01,2013-04-24 01:20:00,
2013-04-23 20:25:00,39.3,28.9,29.99,North,350,1.0,8.0,66,0.00,,---,0.02,0.00,VWS V14.01,2013-04-24 01:25:00,
2013-04-23 20:30:00,39.3,29.3,29.99,NNE,19,3.0,8.0,67,0.00,,---,0.02,0.00,VWS V14.01,2013-04-24 01:30:00,
2013-04-23 20:35:00,39.2,29.2,29.99,NNE,22,4.0,8.0,67,0.00,,---,0.02,0.00,VWS V14.01,2013-04-24 01:35:00,
2013-04-23 20:40:00,39.2,28.8,29.99,NNE,21,2.0,8.0,66,0.00,,---,0.02,0.00,VWS V14.01,2013-04-24 01:40:00,
2013-04-23 20:45:00,39.2,29.2,30.00,NNW,340,2.0,8.0,67,0.00,,---,0.02,0.00,VWS V14.01,2013-04-24 01:45:00,
2013-04-23 20:50:00,39.1,29.1,30.00,North,360,1.0,8.0,67,0.00,,---,0.02,0.00,VWS V14.01,2013-04-24 01:50:00,
2013-04-23 20:55:00,39.1,29.1,30.00,NNW,344,3.0,8.0,67,0.00,,---,0.02,0.00,VWS V14.01,2013-04-24 01:55:00,
2013-04-23 21:00:00,39.1,29.5,30.00,North,5,2.0,3.0,68,0.00,,---,0.02,0.00,VWS V14.01,2013-04-24 02:00:00,
2013-04-23 21:05:00,39.1,29.1,30.00,NNW,331,3.0,4.0,67,0.00,,---,0.02,0.00,VWS V14.01,2013-04-24 02:05:00,
2013-04-23 21:10:00,39.0,29.0,30.01,North,355,3.0,5.0,67,0.00,,---,0.02,0.00,VWS V14.01,2013-04-24 02:10:00,
2013-04-23 21:15:00,39.0,29.0,30.00,North,349,2.0,5.0,67,0.00,,---,0.02,0.00,VWS V14.01,2013-04-24 02:15:00,
2013-04-23 21:20:00,38.9,28.9,30.01,NNW,340,1.0,6.0,67,0.00,,---,0.02,0.00,VWS V14.01,2013-04-24 02:20:00,
2013-04-23 21:25:00,38.9,28.9,30.01,NNW,340,1.0,6.0,67,0.00,,---,0.02,0.00,VWS V14.01,2013-04-24 02:25:00,
2013-04-23 21:30:00,38.8,29.2,30.01,NNW,340,0.0,6.0,68,0.00,,---,0.02,0.00,VWS V14.01,2013-04-24 02:30:00,
2013-04-23 21:35:00,38.8,29.2,30.01,NW,320,2.0,6.0,68,0.00,,---,0.02,0.00,VWS V14.01,2013-04-24 02:35:00,
2013-04-23 21:40:00,38.7,29.1,30.01,NNW,330,2.0,6.0,68,0.00,,---,0.02,0.00,VWS V14.01,2013-04-24 02:40:00,
2013-04-23 21:45:00,38.6,29.0,30.01,North,350,3.0,6.0,68,0.00,,---,0.02,0.00,VWS V14.01,2013-04-24 02:45:00,
2013-04-23 21:50:00,38.5,28.9,30.01,North,5,2.0,6.0,68,0.00,,---,0.02,0.00,VWS V14.01,2013-04-24 02:50:00,
2013-04-23 21:55:00,38.4,28.8,30.01,North,5,0.0,6.0,68,0.00,,---,0.02,0.00,VWS V14.01,2013-04-24 02:55:00,
2013-04-23 22:00:00,38.4,28.8,30.01,North,5,2.0,6.0,68,0.00,,---,0.02,0.00,VWS V14.01,2013-04-24 03:00:00,
2013-04-23 22:01:00,38.4,28.8,30.01,North,5,1.0,2.0,68,0.00,,---,0.02,0.00,VWS V14.01,2013-04-24 03:01:00,
2013-04-23 22:06:00,38.3,29.0,30.01,North,5,0.0,2.0,69,0.00,,---,0.02,0.00,VWS V14.01,2013-04-24 03:06:00,
2013-04-23 22:11:00,38.2,28.6,30.01,North,5,1.0,2.0,68,0.00,,---,0.02,0.00,VWS V14.01,2013-04-24 03:11:00,
2013-04-23 22:16:00,38.2,28.9,30.01,North,5,0.0,2.0,69,0.00,,---,0.02,0.00,VWS V14.01,2013-04-24 03:16:00,
2013-04-23 22:21:00,38.1,28.8,30.01,North,5,0.0,2.0,69,0.00,,---,0.02,0.00,VWS V14.01,2013-04-24 03:21:00,
2013-04-23 22:26:00,38.0,28.8,30.01,North,5,1.0,2.0,69,0.00,,---,0.02,0.00,VWS V14.01,2013-04-24 03:26:00,
2013-04-23 22:31:00,37.9,28.6,30.01,North,5,0.0,2.0,69,0.00,,---,0.02,0.00,VWS V14.01,2013-04-24 03:31:00,
2013-04-23 22:36:00,37.8,28.6,30.02,North,360,3.0,3.0,69,0.00,,---,0.02,0.00,VWS V14.01,2013-04-24 03:36:00,
2013-04-23 22:41:00,37.7,28.8,30.02,NNW,348,2.0,5.0,70,0.00,,---,0.02,0.00,VWS V14.01,2013-04-24 03:41:00,
2013-04-23 22:46:00,37.6,29.1,30.01,NNW,348,1.0,5.0,71,0.00,,---,0.02,0.00,VWS V14.01,2013-04-24 03:46:00,
2013-04-23 22:51:00,37.5,29.3,30.02,NNW,348,1.0,5.0,72,0.00,,---,0.02,0.00,VWS V14.01,2013-04-24 03:51:00,
2013-04-23 22:56:00,37.4,29.2,30.01,NNW,348,0.0,5.0,72,0.00,,---,0.02,0.00,VWS V14.01,2013-04-24 03:56:00,
2013-04-23 23:00:00,37.4,29.2,30.01,NNW,348,2.0,5.0,72,0.00,,---,0.02,0.00,VWS V14.01,2013-04-24 04:00:00,
2013-04-23 23:01:00,37.3,29.1,30.01,NNW,348,1.0,3.0,72,0.00,,---,0.02,0.00,VWS V14.01,2013-04-24 04:01:00,
2013-04-23 23:06:00,37.2,29.0,30.01,NNW,348,1.0,3.0,72,0.00,,---,0.02,0.00,VWS V14.01,2013-04-24 04:06:00,
2013-04-23 23:11:00,37.1,28.9,30.01,NNW,348,3.0,3.0,72,0.00,,---,0.02,0.00,VWS V14.01,2013-04-24 04:11:00,
2013-04-23 23:16:00,37.0,28.8,30.01,NNW,348,1.0,3.0,72,0.00,,---,0.02,0.00,VWS V14.01,2013-04-24 04:16:00,
2013-04-23 23:21:00,37.0,29.2,30.01,NNW,348,1.0,3.0,73,0.00,,---,0.02,0.00,VWS V14.01,2013-04-24 04:21:00,
2013-04-23 23:26:00,36.9,28.7,30.01,North,5,2.0,4.0,72,0.00,,---,0.02,0.00,VWS V14.01,2013-04-24 04:26:00,
2013-04-23 23:31:00,36.9,28.7,30.01,North,5,1.0,4.0,72,0.00,,---,0.02,0.00,VWS V14.01,2013-04-24 04:31:00,
2013-04-23 23:36:00,36.8,28.6,30.01,North,5,1.0,4.0,72,0.00,,---,0.02,0.00,VWS V14.01,2013-04-24 04:36:00,
2013-04-23 23:41:00,36.7,28.5,30.01,North,5,2.0,4.0,72,0.00,,---,0.02,0.00,VWS V14.01,2013-04-24 04:41:00,
2013-04-23 23:46:00,36.7,28.5,30.01,North,5,2.0,4.0,72,0.00,,---,0.02,0.00,VWS V14.01,2013-04-24 04:46:00,
2013-04-23 23:51:00,36.6,28.4,30.01,NNW,344,0.0,6.0,72,0.00,,---,0.02,0.00,VWS V14.01,2013-04-24 04:51:00,
2013-04-23 23:56:00,36.6,28.4,30.01,NNW,344,0.0,6.0,72,0.00,,---,0.02,0.00,VWS V14.01,2013-04-24 04:56:00,